This demonstration page uses our WeatherBlox Daily Observations layout. Learn more.

Left ArrowRight Arrow

53.62937, 11.41316

Hourly Observations for May 26, 2019

Temp ( °F °C ) Dew Point ( °F °C ) Humidity (%) Winds ( mph kmh ) Pressure ( in mb ) Visibility ( mi km ) Precip ( " mm )
6:50 am 06:50 Partly Cloudy 50 10 45 7 82 82 SW 8 13 29.89 1012 30 48 N/A
7:20 am 07:20 Partly Cloudy 50 10 45 7 82 82 SW 9 15 29.86 1011 30 48 N/A
7:50 am 07:50 Partly Cloudy 52 11 46 8 82 82 SW 9 15 29.86 1011 30 48 N/A
8:20 am 08:20 Mostly Sunny 52 11 46 8 82 82 SW 9 15 29.86 1011 7 11 N/A
8:50 am 08:50 Mostly Sunny 54 12 46 8 77 77 SW 10 17 29.83 1010 30 48 N/A
9:20 am 09:20 Mostly Sunny 55 13 48 9 77 77 SW 12 19 29.83 1010 7 11 N/A
9:50 am 09:50 Mostly Sunny 57 14 48 9 72 72 SW 15 24 29.83 1010 7 11 N/A
10:20 am 10:20 Mostly Cloudy 59 15 48 9 68 68 WSW 14 22 29.83 1010 30 48 N/A
10:50 am 10:50 Mostly Cloudy 59 15 46 8 63 63 WSW 16 26 29.80 1009 30 48 N/A
11:20 am 11:20 Mostly Cloudy 59 15 48 9 68 68 SW 16 26 29.80 1009 30 48 N/A
11:50 am 11:50 Cloudy with Light Rain 59 15 48 9 68 68 SW 16 26 29.80 1009 30 48 N/A
12:20 pm 12:20 Cloudy with Light Rain 57 14 50 10 77 77 WSW 21 33 29.80 1009 30 48 N/A
12:50 pm 12:50 Cloudy 57 14 52 11 82 82 WSW 16 26 29.80 1009 30 48 N/A
1:20 pm 13:20 Cloudy with Drizzle 57 14 54 12 88 88 WSW 17 28 29.80 1009 4 7 N/A
1:50 pm 13:50 Mostly Cloudy 59 15 54 12 82 82 SW 13 20 29.77 1008 6 9 N/A
2:20 pm 14:20 Mostly Cloudy with Drizzle 59 15 55 13 88 88 SW 15 24 29.77 1008 5 8 N/A
2:50 pm 14:50 Mostly Cloudy with Drizzle 59 15 55 13 88 88 WSW 14 22 29.77 1008 5 8 N/A
3:20 pm 15:20 Mostly Cloudy 59 15 55 13 88 88 WSW 9 15 29.77 1008 5 8 N/A
3:50 pm 15:50 Mostly Cloudy 61 16 55 13 83 83 W 5 7 29.77 1008 30 48 N/A
4:20 pm 16:20 Mostly Cloudy 63 17 55 13 77 77 W 5 7 29.77 1008 30 48 N/A
4:50 pm 16:50 Mostly Cloudy 63 17 55 13 77 77 VRB 2 4 29.74 1007 30 48 N/A
5:20 pm 17:20 Mostly Cloudy 63 17 57 14 83 83 VRB 2 4 29.74 1007 6 9 N/A
5:50 pm 17:50 Mostly Cloudy 63 17 57 14 83 83 W 3 6 29.74 1007 6 9 N/A
6:20 pm 18:20 Partly Cloudy 64 18 57 14 78 78 WNW 3 6 29.74 1007 30 48 N/A
6:50 pm 18:50 Mostly Sunny 66 19 55 13 68 68 WSW 5 7 29.71 1006 7 11 N/A
7:20 pm 19:20 Mostly Sunny 66 19 54 12 64 64 SW 10 17 29.71 1006 30 48 N/A
7:50 pm 19:50 Windy with Rain Showers Likely 66 19 54 12 64 64 WSW 21 33 29.71 1006 30 48 N/A
8:20 pm 20:20 Mostly Cloudy with Showers 61 16 57 14 88 88 W 14 22 29.71 1006 4 6 N/A
8:50 pm 20:50 Mostly Cloudy with Light Rain 59 15 57 14 94 94 WSW 15 24 29.71 1006 4 6 N/A

Powered by AerisWeather